Location: Larrial
(48.2758°N, 4.5331°W)
Time: 00:58:36
(UTC+00:00)

XW-2F - Pass Details

Date: 06 December 2021
Orbit: 495 x 515 km, 97.5° (Epoch: 16 January)

Event Time Altitude Azimuth Distance (km) Brightness Sun altitude
Rises 17:11:10 0° 153° (SSE) 2,605 ? -7.6°
Reaches altitude 10° 17:13:16 10° 148° (SSE) 1,728 ? -7.9°
Maximum altitude 17:16:53 50° 72° (ENE) 659 ? -8.5°
Drops below altitude 10° 17:20:33 10° 357° (N) 1,753 ? -9.0°
Sets 17:22:41 0° 352° (N) 2,648 ? -9.3°
